Location: Banff
(51.1667°N, 115.5667°W)
Time: 14:53:36
(UTC+00:00)

Vanguard 1 - Pass Details

Date: 03 December 2020
Orbit: 649 x 3834 km, 34.3° (Epoch: 15 January)

Event Time Altitude Azimuth Distance (km) Brightness Sun altitude
Exits shadow 12:01:10 14° 176° (S) 2,350 12.0 -31.3°
Maximum altitude 12:02:56 16° 157° (SSE) 2,421 12.2 -31.0°
Drops below altitude 10° 12:07:10 10° 123° (ESE) 3,298 13.4 -30.3°
Sets 12:12:23 0° 104° (ESE) 4,917 14.8 -29.5°
